When you browse on this site, cookies collect data to enhance your experience and personalize the content and advertising you see.
Visit our Privacy Policy to learn more. By continuing to use the site, you agree to this use of cookies and data.
  • în România
  • Lista ţărilor
  • Pe 7 zile
  • Temperatura apei
  • Hartă satelitară
  • Meteo pe hartă
  • Widget-uri
  • user-avatar
    Intrare

    Meteo pe oră la Ascea

    Astăzi, 16 Februarie, Sâmbătă

    Timp Temperatura Precipitaţii Vânt Presiune Umiditate
    00:00 +5°C° 0 mm 3 m/s 760 mmHg 80%
    01:00 +4°C° 0 mm 3 m/s 760 mmHg 81%
    02:00 +4°C° 0 mm 3 m/s 760 mmHg 82%
    03:00 +4°C° 0 mm 3 m/s 760 mmHg 83%
    04:00 +5°C° 0 mm 2 m/s 760 mmHg 84%
    05:00 +4°C° 0 mm 3 m/s 761 mmHg 84%
    06:00 +4°C° 0 mm 3 m/s 761 mmHg 84%
    07:00 +4°C° 0 mm 3 m/s 761 mmHg 84%
    08:00 +7°C° 0 mm 2 m/s 761 mmHg 76%
    09:00 +8°C° 0 mm 2 m/s 761 mmHg 68%
    10:00 +10°C° 0 mm 2 m/s 762 mmHg 60%
    11:00 +12°C° 0 mm 2 m/s 762 mmHg 56%
    12:00 +13°C° 0 mm 2 m/s 762 mmHg 51%
    13:00 +15°C° 0 mm 1 m/s 762 mmHg 46%
    14:00 +14°C° 0 mm 2 m/s 761 mmHg 49%
    15:00 +14°C° 0 mm 2 m/s 761 mmHg 51%
    16:00 +13°C° 0 mm 3 m/s 761 mmHg 53%
    17:00 +11°C° 0 mm 3 m/s 761 mmHg 62%
    18:00 +10°C° 0 mm 3 m/s 761 mmHg 70%
    19:00 +8°C° 0 mm 3 m/s 761 mmHg 78%
    20:00 +8°C° 0 mm 3 m/s 761 mmHg 80%
    21:00 +8°C° 0 mm 2 m/s 761 mmHg 81%
    22:00 +7°C° 0 mm 2 m/s 761 mmHg 83%
    23:00 +7°C° 0 mm 2 m/s 761 mmHg 81%

    Mâine, 17 Februarie, Duminică

    Timp Temperatura Precipitaţii Vânt Presiune Umiditate
    00:00 +7°C° 0 mm 2 m/s 761 mmHg 80%
    01:00 +6°C° 0 mm 2 m/s 761 mmHg 79%
    02:00 +6°C° 0 mm 2 m/s 761 mmHg 76%
    03:00 +7°C° 0 mm 1 m/s 761 mmHg 72%
    04:00 +7°C° 0 mm 1 m/s 761 mmHg 69%
    05:00 +7°C° 0 mm 1 m/s 761 mmHg 67%
    06:00 +7°C° 0 mm 1 m/s 761 mmHg 65%
    07:00 +7°C° 0 mm 1 m/s 761 mmHg 62%
    08:00 +9°C° 0 mm 1 m/s 761 mmHg 57%
    09:00 +11°C° 0 mm 1 m/s 761 mmHg 52%
    10:00 +12°C° 0 mm 0 m/s 761 mmHg 46%
    11:00 +14°C° 0 mm 1 m/s 761 mmHg 47%
    12:00 +15°C° 0 mm 1 m/s 761 mmHg 48%
    13:00 +15°C° 0 mm 2 m/s 760 mmHg 49%
    14:00 +15°C° 0 mm 2 m/s 760 mmHg 54%
    15:00 +14°C° 0 mm 2 m/s 760 mmHg 59%
    16:00 +14°C° 0 mm 2 m/s 759 mmHg 64%
    17:00 +12°C° 0 mm 2 m/s 760 mmHg 72%
    18:00 +10°C° 0 mm 1 m/s 760 mmHg 80%
    19:00 +9°C° 0 mm 1 m/s 760 mmHg 88%
    20:00 +9°C° 0 mm 1 m/s 760 mmHg 88%
    21:00 +9°C° 0 mm 1 m/s 760 mmHg 88%
    22:00 +8°C° 0 mm 1 m/s 760 mmHg 88%
    23:00 +8°C° 0 mm 1 m/s 760 mmHg 89%

    Poimâine, 18 Februarie, Luni

    Timp Temperatura Precipitaţii Vânt Presiune Umiditate
    00:00 +8°C° 0 mm 1 m/s 759 mmHg 89%
    01:00 +8°C° 0 mm 1 m/s 759 mmHg 89%
    02:00 +8°C° 0 mm 1 m/s 759 mmHg 90%
    03:00 +8°C° 0 mm 1 m/s 759 mmHg 90%
    04:00 +8°C° 0 mm 1 m/s 758 mmHg 90%
    05:00 +7°C° 0 mm 1 m/s 758 mmHg 90%
    06:00 +7°C° 0 mm 1 m/s 759 mmHg 90%
    07:00 +7°C° 0 mm 1 m/s 759 mmHg 90%
    08:00 +9°C° 0 mm 1 m/s 759 mmHg 82%
    09:00 +12°C° 0 mm 1 m/s 759 mmHg 74%
    10:00 +13°C° 0 mm 0 m/s 759 mmHg 66%
    11:00 +14°C° 0 mm 1 m/s 759 mmHg 65%
    12:00 +15°C° 0 mm 1 m/s 758 mmHg 63%
    13:00 +15°C° 0 mm 2 m/s 758 mmHg 61%
    14:00 +15°C° 0 mm 2 m/s 758 mmHg 64%
    15:00 +14°C° 0 mm 2 m/s 758 mmHg 68%
    16:00 +14°C° 0 mm 2 m/s 757 mmHg 71%
    17:00 +12°C° 0 mm 2 m/s 757 mmHg 77%
    18:00 +11°C° 0 mm 1 m/s 757 mmHg 83%
    19:00 +9°C° 0 mm 1 m/s 758 mmHg 89%
    20:00 +9°C° 0 mm 1 m/s 758 mmHg 89%
    21:00 +9°C° 0 mm 1 m/s 758 mmHg 89%
    22:00 +9°C° 0 mm 1 m/s 758 mmHg 89%
    23:00 +9°C° 0 mm 1 m/s 758 mmHg 89%

    19 Februarie, Marţi

    Timp Temperatura Precipitaţii Vânt Presiune Umiditate
    00:00 +8°C° 0 mm 1 m/s 758 mmHg 90%
    01:00 +8°C° 0 mm 1 m/s 758 mmHg 90%
    02:00 +8°C° 0 mm 1 m/s 758 mmHg 90%
    03:00 +8°C° 0 mm 1 m/s 758 mmHg 90%
    04:00 +8°C° 0 mm 1 m/s 757 mmHg 91%
    05:00 +8°C° 0 mm 1 m/s 757 mmHg 91%
    06:00 +8°C° 0 mm 1 m/s 758 mmHg 91%
    07:00 +7°C° 0 mm 1 m/s 758 mmHg 91%
    08:00 +10°C° 0 mm 1 m/s 758 mmHg 82%
    09:00 +12°C° 0 mm 1 m/s 758 mmHg 73%
    10:00 +13°C° 0 mm 0 m/s 758 mmHg 64%
    11:00 +14°C° 0 mm 1 m/s 758 mmHg 61%
    12:00 +15°C° 0 mm 1 m/s 758 mmHg 58%
    13:00 +15°C° 0 mm 2 m/s 758 mmHg 56%
    14:00 +15°C° 0 mm 2 m/s 757 mmHg 59%
    15:00 +14°C° 0 mm 2 m/s 757 mmHg 63%
    16:00 +14°C° 0 mm 2 m/s 757 mmHg 66%
    17:00 +12°C° 0 mm 2 m/s 757 mmHg 73%
    18:00 +11°C° 0 mm 1 m/s 757 mmHg 80%
    19:00 +9°C° 0 mm 1 m/s 757 mmHg 87%
    20:00 +9°C° 0 mm 1 m/s 758 mmHg 87%
    21:00 +9°C° 0 mm 1 m/s 758 mmHg 86%
    22:00 +9°C° 0 mm 1 m/s 758 mmHg 86%
    23:00 +9°C° 0 mm 1 m/s 758 mmHg 86%

    20 Februarie, Miercuri

    Timp Temperatura Precipitaţii Vânt Presiune Umiditate
    00:00 +8°C° 0 mm 1 m/s 758 mmHg 86%
    01:00 +8°C° 0 mm 1 m/s 758 mmHg 85%
    02:00 +8°C° 0 mm 1 m/s 758 mmHg 85%
    03:00 +8°C° 0 mm 1 m/s 758 mmHg 85%
    04:00 +8°C° 0 mm 1 m/s 758 mmHg 84%
    05:00 +8°C° 0 mm 1 m/s 758 mmHg 83%
    06:00 +8°C° 0 mm 1 m/s 758 mmHg 82%
    07:00 +7°C° 0 mm 1 m/s 758 mmHg 81%
    08:00 +10°C° 0 mm 1 m/s 759 mmHg 72%
    09:00 +12°C° 0 mm 1 m/s 759 mmHg 64%
    10:00 +15°C° 0 mm 1 m/s 759 mmHg 55%
    11:00 +15°C° 0 mm 1 m/s 759 mmHg 52%
    12:00 +16°C° 0 mm 1 m/s 759 mmHg 49%
    13:00 +18°C° 0 mm 1 m/s 759 mmHg 47%
    14:00 +16°C° 0 mm 2 m/s 758 mmHg 50%
    15:00 +16°C° 0 mm 2 m/s 758 mmHg 52%
    16:00 +15°C° 0 mm 2 m/s 758 mmHg 55%
    17:00 +14°C° 0 mm 2 m/s 758 mmHg 61%
    18:00 +12°C° 0 mm 1 m/s 758 mmHg 68%
    19:00 +11°C° 0 mm 1 m/s 759 mmHg 74%
    20:00 +11°C° 0 mm 1 m/s 759 mmHg 76%
    21:00 +11°C° 0 mm 1 m/s 759 mmHg 79%
    22:00 +10°C° 0 mm 1 m/s 759 mmHg 81%
    23:00 +9°C° 0 mm 2 m/s 759 mmHg 82%

    21 Februarie, Joi

    Timp Temperatura Precipitaţii Vânt Presiune Umiditate
    00:00 +9°C° 0 mm 2 m/s 759 mmHg 83%
    01:00 +9°C° 0 mm 2 m/s 759 mmHg 84%
    02:00 +9°C° 0 mm 2 m/s 759 mmHg 85%
    03:00 +9°C° 0 mm 2 m/s 759 mmHg 85%
    04:00 +10°C° 0 mm 1 m/s 759 mmHg 86%
    05:00 +9°C° 0 mm 1 m/s 759 mmHg 86%
    06:00 +9°C° 0 mm 1 m/s 759 mmHg 87%
    07:00 +9°C° 0 mm 1 m/s 759 mmHg 87%
    08:00 +11°C° 0 mm 1 m/s 759 mmHg 79%
    09:00 +14°C° 0 mm 1 m/s 759 mmHg 70%
    10:00 +16°C° 0 mm 1 m/s 759 mmHg 62%
    11:00 +18°C° 0 mm 1 m/s 759 mmHg 59%
    12:00 +17°C° 0 mm 2 m/s 759 mmHg 56%
    13:00 +18°C° 0 mm 2 m/s 759 mmHg 53%
    14:00 +17°C° 0 mm 2 m/s 758 mmHg 58%
    15:00 +16°C° 0 mm 2 m/s 758 mmHg 63%
    16:00 +15°C° 0 mm 2 m/s 758 mmHg 68%
    17:00 +14°C° 0 mm 2 m/s 758 mmHg 75%
    18:00 +13°C° 0 mm 2 m/s 758 mmHg 82%
    19:00 +10°C° 0 mm 2 m/s 758 mmHg 89%
    20:00 +11°C° 0 mm 1 m/s 758 mmHg 88%
    21:00 +11°C° 0 mm 1 m/s 758 mmHg 87%
    22:00 +10°C° 0 mm 1 m/s 759 mmHg 87%
    23:00 +10°C° 0 mm 1 m/s 758 mmHg 87%
    Arată mai mult